Location: Sternwarte Stuttgart
(48.7670°N, 9.1830°E)
Time: 07:22:33
(UTC+02:00)

Fregat R/B Cluster 11 - Pass Details

Date: 24 January 2019
Orbit: 327 x 17521 km, 64.8° (Epoch: 22 October)

Event Time Altitude Azimuth Distance (km) Brightness Sun altitude
Rises 15:32:02 0° 320° (NW) 5,159 8.7 11.3°
Reaches altitude 10° 15:34:07 10° 317° (NW) 4,745 8.6 11.0°
Maximum altitude 15:49:04 62° 242° (WSW) 5,603 9.5 9.3°
Drops below altitude 10° 17:15:15 10° 185° (S) 20,769 12.3 -2.2°
Enters shadow 20:22:45 -54° 76° (ENE) 11,589 10.5 -32.1°
Exits shadow 20:34:38 -40° 29° (NNE) 8,868 10.1 -34.0°
